AFL3107 UNBB-USPP

Flight info

Callsign AFL3107
Flight time 3h 6m
Altitude 36000
Route GIRUR2F GIRUR DCT IDERI P983 ABESA L158 OZGEL A487 BABUK B236 LUKAS M864 LUNAG N170 PENUS T796 RIPEM DCT INPIL INPIL1E
Aircraft B738/M-SDE2E3FGHIRWXY/LB1

Departure

Time 2026-04-20 09:53
Airport Barnaul Gherman Titov International Airport (UNBB)

Arrival

Time 2026-04-20 13:00
Airport Perm International Airport (USPP)
Time Latitude Longitude Altitude Speed Heading
2026-04-20 09:28 53.36289 83.55028 825 ft 0 kts 248°
2026-04-20 09:48 53.36289 83.55027 832 ft 1 kts 248°
2026-04-20 09:48 53.36280 83.54989 830 ft 7 kts 249°
2026-04-20 09:48 53.36314 83.54918 830 ft 12 kts 337°
2026-04-20 09:49 53.36384 83.54963 832 ft 15 kts 61°
2026-04-20 09:49 53.36433 83.55152 832 ft 20 kts 69°
2026-04-20 09:49 53.36492 83.55387 832 ft 23 kts 67°
2026-04-20 09:49 53.36556 83.55646 832 ft 25 kts 68°
2026-04-20 09:50 53.36621 83.55901 832 ft 20 kts 68°
2026-04-20 09:50 53.36699 83.56006 833 ft 16 kts 346°
2026-04-20 09:50 53.36712 83.55998 832 ft 0 kts 339°
2026-04-20 09:51 53.36714 83.55997 831 ft 1 kts 339°
2026-04-20 09:51 53.36730 83.55986 830 ft 4 kts 338°
2026-04-20 09:51 53.36762 83.55963 829 ft 6 kts 335°
2026-04-20 09:52 53.36790 83.55905 834 ft 9 kts 285°
2026-04-20 09:52 53.36774 83.55791 829 ft 8 kts 248°
2026-04-20 09:52 53.36773 83.55788 829 ft 0 kts 248°
2026-04-20 09:52 53.36773 83.55787 829 ft 1 kts 248°
2026-04-20 09:53 53.36682 83.55418 834 ft 74 kts 248°
2026-04-20 09:53 53.36393 83.54258 830 ft 143 kts 247°
2026-04-20 09:53 53.35930 83.52420 990 ft 190 kts 246°
2026-04-20 09:53 53.35386 83.50346 1837 ft 201 kts 248°
2026-04-20 09:54 53.35153 83.48014 2421 ft 215 kts 279°
2026-04-20 09:54 53.35605 83.45544 2928 ft 230 kts 288°
2026-04-20 09:54 53.36146 83.42854 3187 ft 254 kts 288°
2026-04-20 09:54 53.36708 83.40009 3985 ft 256 kts 287°
2026-04-20 09:55 53.37239 83.37224 5165 ft 246 kts 286°
2026-04-20 09:55 53.37749 83.34456 5980 ft 251 kts 285°
2026-04-20 09:55 53.38250 83.31661 6753 ft 254 kts 285°
2026-04-20 09:55 53.38750 83.28798 7584 ft 255 kts 285°
2026-04-20 09:56 53.39079 83.26891 8117 ft 257 kts 284°
2026-04-20 09:56 53.39729 83.23071 9212 ft 258 kts 284°
2026-04-20 09:56 53.40059 83.21113 9766 ft 259 kts 284°
2026-04-20 09:56 53.40710 83.17216 10573 ft 270 kts 284°
2026-04-20 09:57 53.41060 83.15103 10677 ft 286 kts 284°
2026-04-20 09:57 53.41610 83.11764 10864 ft 308 kts 284°
2026-04-20 09:57 53.42192 83.08223 11095 ft 326 kts 284°
2026-04-20 09:57 53.42802 83.04497 11642 ft 333 kts 284°
2026-04-20 09:58 53.43418 83.00730 12361 ft 335 kts 284°
2026-04-20 09:58 53.44034 82.96950 13118 ft 337 kts 284°
2026-04-20 09:58 53.44653 82.93144 13837 ft 339 kts 284°
2026-04-20 09:58 53.45268 82.89348 14448 ft 342 kts 284°
2026-04-20 09:59 53.45892 82.85485 15074 ft 344 kts 284°
2026-04-20 09:59 53.46519 82.81596 15705 ft 346 kts 284°
2026-04-20 09:59 53.47149 82.77674 16330 ft 349 kts 284°
2026-04-20 09:59 53.47764 82.73838 16907 ft 351 kts 284°
2026-04-20 10:00 53.48421 82.69735 17500 ft 355 kts 284°
2026-04-20 10:00 53.49063 82.65713 18108 ft 357 kts 284°
2026-04-20 10:00 53.49706 82.61671 18659 ft 359 kts 284°
2026-04-20 10:00 53.50344 82.57658 19149 ft 362 kts 285°
2026-04-20 10:01 53.50994 82.53556 19630 ft 365 kts 285°
2026-04-20 10:01 53.51648 82.49421 20111 ft 368 kts 285°
2026-04-20 10:01 53.52307 82.45241 20623 ft 369 kts 285°
2026-04-20 10:01 53.52965 82.41058 21135 ft 371 kts 285°
2026-04-20 10:02 53.53625 82.36851 21602 ft 374 kts 285°
2026-04-20 10:02 53.54291 82.32600 22062 ft 376 kts 285°
2026-04-20 10:02 53.54958 82.28327 22514 ft 378 kts 285°
2026-04-20 10:02 53.55621 82.24079 22952 ft 381 kts 286°
2026-04-20 10:03 53.56547 82.19892 23333 ft 384 kts 297°
2026-04-20 10:03 53.57888 82.15985 23737 ft 386 kts 299°
2026-04-20 10:03 53.59233 82.12055 24093 ft 388 kts 298°
2026-04-20 10:03 53.60554 82.08075 24463 ft 390 kts 298°
2026-04-20 10:04 53.61864 82.04063 24816 ft 391 kts 298°
2026-04-20 10:04 53.63173 82.00024 25164 ft 393 kts 298°
2026-04-20 10:04 53.64470 81.96012 25503 ft 395 kts 298°
2026-04-20 10:04 53.65790 81.91926 25841 ft 396 kts 298°
2026-04-20 10:05 53.67116 81.87820 26167 ft 398 kts 298°
2026-04-20 10:05 53.68443 81.83702 26475 ft 400 kts 298°
2026-04-20 10:05 53.69777 81.79560 26791 ft 402 kts 298°
2026-04-20 10:05 53.71115 81.75402 27090 ft 404 kts 298°
2026-04-20 10:06 53.72441 81.71270 27390 ft 405 kts 298°
2026-04-20 10:06 53.73788 81.67069 27683 ft 407 kts 298°
2026-04-20 10:06 53.75136 81.62855 27947 ft 408 kts 298°
2026-04-20 10:06 53.76495 81.58602 28193 ft 411 kts 298°
2026-04-20 10:07 53.77857 81.54334 28458 ft 413 kts 298°
2026-04-20 10:07 53.79202 81.50106 28758 ft 413 kts 298°
2026-04-20 10:07 53.80560 81.45826 29153 ft 412 kts 298°
2026-04-20 10:07 53.81916 81.41554 29612 ft 409 kts 298°
2026-04-20 10:08 53.83262 81.37317 30026 ft 408 kts 298°
2026-04-20 10:08 53.84603 81.33072 30347 ft 407 kts 298°
2026-04-20 10:08 53.85920 81.28886 30659 ft 406 kts 298°
2026-04-20 10:08 53.87245 81.24661 31003 ft 404 kts 298°
2026-04-20 10:09 53.88562 81.20457 31341 ft 402 kts 298°
2026-04-20 10:09 53.89876 81.16254 31646 ft 401 kts 298°
2026-04-20 10:09 53.91162 81.12122 31953 ft 400 kts 298°
2026-04-20 10:09 53.92458 81.07956 32355 ft 396 kts 298°
2026-04-20 10:10 53.93737 81.03840 32818 ft 391 kts 299°
2026-04-20 10:10 53.95007 80.99754 33151 ft 389 kts 299°
2026-04-20 10:10 53.96270 80.95688 33385 ft 390 kts 299°
2026-04-20 10:10 53.97535 80.91605 33623 ft 389 kts 299°
2026-04-20 10:11 53.98780 80.87583 33953 ft 387 kts 299°
2026-04-20 10:11 54.00030 80.83536 34243 ft 386 kts 299°
2026-04-20 10:11 54.01280 80.79484 34417 ft 386 kts 299°
2026-04-20 10:11 54.02530 80.75424 34568 ft 387 kts 299°
2026-04-20 10:12 54.03783 80.71350 34744 ft 387 kts 299°
2026-04-20 10:12 54.05017 80.67334 34944 ft 387 kts 299°
2026-04-20 10:12 54.06266 80.63263 35106 ft 387 kts 299°
2026-04-20 10:12 54.07512 80.59195 35220 ft 389 kts 299°
2026-04-20 10:13 54.10028 80.50960 35433 ft 392 kts 299°
2026-04-20 10:13 54.11268 80.46891 35622 ft 392 kts 299°
2026-04-20 10:13 54.12521 80.42768 35856 ft 389 kts 299°
2026-04-20 10:14 54.13764 80.38670 36057 ft 389 kts 299°
2026-04-20 10:14 54.15012 80.34552 36055 ft 391 kts 298°
2026-04-20 10:14 54.17500 80.26318 36066 ft 390 kts 298°
2026-04-20 10:15 54.19972 80.18109 36063 ft 387 kts 298°
2026-04-20 10:15 54.22425 80.09939 36063 ft 385 kts 298°
2026-04-20 10:16 54.24862 80.01792 36069 ft 384 kts 298°
2026-04-20 10:16 54.27277 79.93691 36063 ft 384 kts 298°
2026-04-20 10:17 54.29705 79.85521 36064 ft 384 kts 298°
2026-04-20 10:17 54.32114 79.77385 36098 ft 385 kts 298°
2026-04-20 10:18 54.34539 79.69166 36075 ft 387 kts 298°
2026-04-20 10:18 54.36961 79.60928 36068 ft 388 kts 298°
2026-04-20 10:19 54.39393 79.52628 36067 ft 388 kts 298°
2026-04-20 10:19 54.41800 79.44382 36066 ft 388 kts 298°
2026-04-20 10:20 54.44219 79.36069 36064 ft 388 kts 298°
2026-04-20 10:20 54.46632 79.27744 36067 ft 388 kts 298°
2026-04-20 10:21 54.49022 79.19471 36047 ft 388 kts 298°
2026-04-20 10:21 54.51418 79.11148 36057 ft 387 kts 297°
2026-04-20 10:22 54.53796 79.02855 36066 ft 388 kts 297°
2026-04-20 10:22 54.56181 78.94513 36072 ft 387 kts 297°
2026-04-20 10:23 54.58557 78.86170 36074 ft 387 kts 297°
2026-04-20 10:23 54.60908 78.77886 36066 ft 387 kts 297°
2026-04-20 10:24 54.63264 78.69552 36061 ft 386 kts 297°
2026-04-20 10:24 54.65613 78.61217 36071 ft 386 kts 297°
2026-04-20 10:25 54.67955 78.52874 36071 ft 385 kts 297°
2026-04-20 10:25 54.70275 78.44579 36066 ft 385 kts 297°
2026-04-20 10:26 54.72606 78.36218 36067 ft 385 kts 297°
2026-04-20 10:26 54.74928 78.27856 36067 ft 385 kts 297°
2026-04-20 10:27 54.77240 78.19500 36065 ft 384 kts 297°
2026-04-20 10:27 54.79528 78.11204 36070 ft 384 kts 296°
2026-04-20 10:28 54.81822 78.02851 36071 ft 383 kts 296°
2026-04-20 10:28 54.84113 77.94483 36072 ft 382 kts 296°
2026-04-20 10:29 54.86380 77.86171 36067 ft 382 kts 296°
2026-04-20 10:29 54.88654 77.77801 36069 ft 383 kts 296°
2026-04-20 10:30 54.90915 77.69456 36096 ft 383 kts 296°
2026-04-20 10:30 54.93076 77.61022 36068 ft 384 kts 290°
2026-04-20 10:31 54.94642 77.52105 36074 ft 384 kts 289°
2026-04-20 10:31 54.96189 77.43194 36069 ft 384 kts 289°
2026-04-20 10:32 54.97732 77.34341 36043 ft 384 kts 289°
2026-04-20 10:32 54.99283 77.25430 36068 ft 384 kts 289°
2026-04-20 10:33 55.00828 77.16530 36073 ft 384 kts 289°
2026-04-20 10:33 55.02359 77.07668 36065 ft 384 kts 288°
2026-04-20 10:34 55.03889 76.98764 36061 ft 384 kts 288°
2026-04-20 10:35 55.06179 76.85355 36061 ft 384 kts 288°
2026-04-20 10:35 55.07697 76.76408 36070 ft 385 kts 288°
2026-04-20 10:36 55.09208 76.67463 36042 ft 384 kts 288°
2026-04-20 10:36 55.10700 76.58580 36056 ft 383 kts 288°
2026-04-20 10:37 55.12196 76.49628 36048 ft 383 kts 288°
2026-04-20 10:37 55.13681 76.40692 36054 ft 383 kts 288°
2026-04-20 10:38 55.15160 76.31757 36047 ft 382 kts 287°
2026-04-20 10:38 55.16632 76.22809 36039 ft 382 kts 287°
2026-04-20 10:39 55.18087 76.13922 36037 ft 382 kts 287°
2026-04-20 10:39 55.19544 76.04975 36031 ft 382 kts 287°
2026-04-20 10:40 55.20995 75.96021 36037 ft 382 kts 287°
2026-04-20 10:40 55.22432 75.87100 36037 ft 382 kts 287°
2026-04-20 10:41 55.23875 75.78103 36051 ft 383 kts 287°
2026-04-20 10:41 55.25311 75.69095 36025 ft 384 kts 287°
2026-04-20 10:42 55.26742 75.60081 36037 ft 383 kts 287°
2026-04-20 10:42 55.28164 75.51070 36003 ft 383 kts 286°
2026-04-20 10:43 55.29573 75.42100 36019 ft 383 kts 286°
2026-04-20 10:43 55.30985 75.33080 36031 ft 383 kts 286°
2026-04-20 10:44 55.32392 75.24043 36029 ft 383 kts 286°
2026-04-20 10:44 55.33781 75.15070 36030 ft 383 kts 286°
2026-04-20 10:45 55.35176 75.06010 36030 ft 383 kts 286°
2026-04-20 10:45 55.36562 74.96960 36028 ft 384 kts 286°
2026-04-20 10:46 55.37710 74.89422 36042 ft 384 kts 285°
2026-04-20 10:46 55.39086 74.80345 36027 ft 384 kts 285°
2026-04-20 10:47 55.40679 74.69774 36030 ft 384 kts 285°
2026-04-20 10:47 55.41814 74.62197 36033 ft 384 kts 285°
2026-04-20 10:48 55.43164 74.53139 36029 ft 384 kts 285°
2026-04-20 10:48 55.44516 74.44016 36023 ft 384 kts 285°
2026-04-20 10:49 55.45859 74.34904 36033 ft 384 kts 285°
2026-04-20 10:49 55.46951 74.27453 36014 ft 384 kts 285°
2026-04-20 10:50 55.48292 74.18254 36014 ft 384 kts 284°
2026-04-20 10:50 55.49614 74.09137 36019 ft 383 kts 284°
2026-04-20 10:51 55.50928 74.00019 36017 ft 384 kts 284°
2026-04-20 10:51 55.52239 73.90876 36015 ft 384 kts 284°
2026-04-20 10:52 55.53544 73.81715 36015 ft 385 kts 284°
2026-04-20 10:52 55.54835 73.72596 36017 ft 385 kts 284°
2026-04-20 10:53 55.56127 73.63419 36017 ft 386 kts 284°
2026-04-20 10:53 55.57416 73.54212 36013 ft 386 kts 284°
2026-04-20 10:54 55.58701 73.44975 36011 ft 386 kts 283°
2026-04-20 10:54 55.59979 73.35731 36014 ft 387 kts 283°
2026-04-20 10:55 55.61245 73.26514 36018 ft 388 kts 283°
2026-04-20 10:55 55.62516 73.17222 36003 ft 388 kts 283°
2026-04-20 10:56 55.63777 73.07926 36007 ft 389 kts 283°
2026-04-20 10:56 55.65025 72.98642 36004 ft 389 kts 283°
2026-04-20 10:57 55.66270 72.89314 36006 ft 389 kts 282°
2026-04-20 10:57 55.67511 72.79960 36002 ft 389 kts 282°
2026-04-20 10:58 55.68743 72.70626 35998 ft 389 kts 282°
2026-04-20 10:58 55.69959 72.61348 35998 ft 389 kts 282°
2026-04-20 10:59 55.71176 72.52005 35997 ft 388 kts 282°
2026-04-20 10:59 55.72381 72.42690 35989 ft 388 kts 282°
2026-04-20 11:00 55.73583 72.33345 35993 ft 388 kts 282°
2026-04-20 11:00 55.74776 72.23999 35998 ft 388 kts 282°
2026-04-20 11:01 55.75956 72.14709 35987 ft 387 kts 281°
2026-04-20 11:01 55.77132 72.05376 35982 ft 387 kts 281°
2026-04-20 11:02 55.78304 71.96035 36016 ft 387 kts 281°
2026-04-20 11:02 55.79512 71.86695 35990 ft 388 kts 282°
2026-04-20 11:03 55.80796 71.77391 35978 ft 388 kts 282°
2026-04-20 11:03 55.82077 71.68074 35959 ft 387 kts 282°
2026-04-20 11:04 55.83333 71.58828 35975 ft 387 kts 282°
2026-04-20 11:04 55.84588 71.49492 35981 ft 387 kts 282°
2026-04-20 11:05 55.85836 71.40143 35974 ft 387 kts 282°
2026-04-20 11:05 55.87076 71.30791 35970 ft 388 kts 282°
2026-04-20 11:06 55.88301 71.21491 35972 ft 388 kts 282°
2026-04-20 11:06 55.89533 71.12078 35967 ft 389 kts 281°
2026-04-20 11:07 55.90751 71.02721 35949 ft 389 kts 281°
2026-04-20 11:07 55.91967 70.93307 35968 ft 390 kts 281°
2026-04-20 11:08 55.93174 70.83906 35960 ft 390 kts 281°
2026-04-20 11:08 55.94378 70.74468 35961 ft 390 kts 281°
2026-04-20 11:09 55.95575 70.65022 35962 ft 390 kts 281°
2026-04-20 11:09 55.96764 70.55576 35959 ft 390 kts 281°
2026-04-20 11:10 55.97945 70.46124 35954 ft 389 kts 281°
2026-04-20 11:10 55.99111 70.36740 35934 ft 389 kts 280°
2026-04-20 11:11 56.00278 70.27281 35952 ft 389 kts 280°
2026-04-20 11:11 56.01436 70.17824 35949 ft 389 kts 280°
2026-04-20 11:12 56.02580 70.08424 35958 ft 389 kts 280°
2026-04-20 11:12 56.03725 69.98946 35956 ft 390 kts 280°
2026-04-20 11:13 56.04866 69.89435 35951 ft 391 kts 280°
2026-04-20 11:13 56.05998 69.79936 35953 ft 390 kts 280°
2026-04-20 11:14 56.07125 69.70425 35937 ft 390 kts 280°
2026-04-20 11:14 56.08419 69.60988 35947 ft 392 kts 287°
2026-04-20 11:15 56.10868 69.52271 35964 ft 397 kts 297°
2026-04-20 11:15 56.13592 69.43702 35953 ft 393 kts 289°
2026-04-20 11:16 56.15068 69.34372 35967 ft 388 kts 278°
2026-04-20 11:16 56.16032 69.24832 35959 ft 389 kts 278°
2026-04-20 11:17 56.16999 69.15264 35965 ft 390 kts 278°
2026-04-20 11:17 56.17974 69.05671 35956 ft 391 kts 278°
2026-04-20 11:18 56.18944 68.96113 35941 ft 391 kts 278°
2026-04-20 11:18 56.19914 68.86505 35950 ft 391 kts 278°
2026-04-20 11:19 56.20878 68.76875 35956 ft 391 kts 278°
2026-04-20 11:19 56.21835 68.67228 35958 ft 392 kts 278°
2026-04-20 11:20 56.22786 68.57568 35955 ft 392 kts 278°
2026-04-20 11:20 56.23728 68.47911 35956 ft 392 kts 278°
2026-04-20 11:21 56.24658 68.38297 35957 ft 392 kts 277°
2026-04-20 11:21 56.25589 68.28597 35947 ft 392 kts 277°
2026-04-20 11:22 56.26504 68.18974 35973 ft 392 kts 277°
2026-04-20 11:22 56.27422 68.09236 35963 ft 393 kts 277°
2026-04-20 11:23 56.28326 67.99564 35953 ft 393 kts 277°
2026-04-20 11:23 56.29227 67.89835 35951 ft 393 kts 277°
2026-04-20 11:24 56.30114 67.80169 35959 ft 393 kts 277°
2026-04-20 11:24 56.31002 67.70414 35954 ft 393 kts 277°
2026-04-20 11:25 56.31879 67.60683 35945 ft 393 kts 277°
2026-04-20 11:25 56.32747 67.50960 35957 ft 393 kts 277°
2026-04-20 11:26 56.33603 67.41289 35954 ft 394 kts 276°
2026-04-20 11:26 56.34458 67.31538 35957 ft 394 kts 276°
2026-04-20 11:27 56.35307 67.21768 35953 ft 395 kts 276°
2026-04-20 11:27 56.36148 67.11988 35968 ft 395 kts 276°
2026-04-20 11:28 56.36985 67.02167 35960 ft 395 kts 276°
2026-04-20 11:28 56.37813 66.92352 35953 ft 395 kts 276°
2026-04-20 11:29 56.38632 66.82553 35954 ft 395 kts 276°
2026-04-20 11:29 56.39444 66.72743 35976 ft 395 kts 276°
2026-04-20 11:30 56.40250 66.62915 35969 ft 395 kts 276°
2026-04-20 11:30 56.41048 66.53082 35967 ft 395 kts 276°
2026-04-20 11:31 56.41836 66.43296 35973 ft 396 kts 276°
2026-04-20 11:31 56.42622 66.33451 35975 ft 396 kts 276°
2026-04-20 11:32 56.43401 66.23603 35964 ft 396 kts 275°
2026-04-20 11:32 56.44173 66.13742 36012 ft 397 kts 275°
2026-04-20 11:33 56.44940 66.03840 35989 ft 398 kts 275°
2026-04-20 11:33 56.45701 65.93909 35970 ft 399 kts 275°
2026-04-20 11:34 56.46457 65.83955 35984 ft 400 kts 275°
2026-04-20 11:34 56.47204 65.73988 35985 ft 400 kts 275°
2026-04-20 11:35 56.47939 65.64057 35986 ft 400 kts 275°
2026-04-20 11:35 56.48552 65.55709 35975 ft 400 kts 275°
2026-04-20 11:36 56.49397 65.44081 35975 ft 400 kts 275°
2026-04-20 11:36 56.50115 65.34077 35971 ft 400 kts 275°
2026-04-20 11:37 56.50705 65.25769 35996 ft 400 kts 275°
2026-04-20 11:37 56.51760 65.10728 35965 ft 402 kts 275°
2026-04-20 11:38 56.52455 65.00685 35990 ft 401 kts 275°
2026-04-20 11:38 56.53140 64.90665 35961 ft 400 kts 274°
2026-04-20 11:39 56.53813 64.80713 35977 ft 400 kts 274°
2026-04-20 11:39 56.54480 64.70713 35977 ft 400 kts 274°
2026-04-20 11:40 56.55139 64.60705 35964 ft 400 kts 274°
2026-04-20 11:40 56.55790 64.50704 35965 ft 400 kts 274°
2026-04-20 11:41 56.56433 64.40687 35967 ft 400 kts 274°
2026-04-20 11:41 56.57070 64.30657 35960 ft 400 kts 274°
2026-04-20 11:42 56.57698 64.20614 35957 ft 401 kts 274°
2026-04-20 11:42 56.58320 64.10539 35966 ft 401 kts 274°
2026-04-20 11:43 56.58935 64.00463 35969 ft 403 kts 274°
2026-04-20 11:43 56.59544 63.90329 35956 ft 405 kts 274°
2026-04-20 11:44 56.60146 63.80172 35960 ft 405 kts 273°
2026-04-20 11:44 56.60739 63.70061 35959 ft 405 kts 273°
2026-04-20 11:45 56.61326 63.59880 35964 ft 405 kts 273°
2026-04-20 11:45 56.61909 63.49701 35949 ft 405 kts 273°
2026-04-20 11:46 56.62487 63.39515 35961 ft 405 kts 273°
2026-04-20 11:46 56.63054 63.29345 35962 ft 405 kts 273°
2026-04-20 11:47 56.63611 63.19156 35959 ft 405 kts 273°
2026-04-20 11:47 56.64161 63.08965 35953 ft 405 kts 273°
2026-04-20 11:48 56.64699 62.98851 35972 ft 405 kts 273°
2026-04-20 11:48 56.65232 62.88662 35968 ft 405 kts 273°
2026-04-20 11:49 56.65759 62.78449 35960 ft 405 kts 272°
2026-04-20 11:49 56.66276 62.68242 35956 ft 406 kts 272°
2026-04-20 11:50 56.66786 62.58018 35967 ft 406 kts 272°
2026-04-20 11:50 56.67289 62.47779 35966 ft 407 kts 272°
2026-04-20 11:51 56.67783 62.37522 35966 ft 407 kts 272°
2026-04-20 11:51 56.68270 62.27258 35964 ft 408 kts 272°
2026-04-20 11:52 56.68748 62.16972 35965 ft 408 kts 272°
2026-04-20 11:52 56.69219 62.06683 35977 ft 408 kts 272°
2026-04-20 11:53 56.69678 61.96444 36000 ft 409 kts 272°
2026-04-20 11:53 56.70134 61.86106 35981 ft 410 kts 272°
2026-04-20 11:54 56.70581 61.75758 35986 ft 410 kts 272°
2026-04-20 11:54 56.71020 61.65398 35984 ft 411 kts 272°
2026-04-20 11:55 56.71450 61.55036 35986 ft 411 kts 272°
2026-04-20 11:55 56.71872 61.44653 35972 ft 411 kts 271°
2026-04-20 11:56 56.72286 61.34267 35993 ft 411 kts 271°
2026-04-20 11:56 56.72692 61.23881 35991 ft 412 kts 271°
2026-04-20 11:57 56.73089 61.13469 35993 ft 412 kts 271°
2026-04-20 11:57 56.73478 61.03054 35992 ft 412 kts 271°
2026-04-20 11:58 56.73860 60.92621 36015 ft 413 kts 271°
2026-04-20 11:58 56.74234 60.82175 36001 ft 413 kts 271°
2026-04-20 11:59 56.74805 60.71793 35990 ft 415 kts 275°
2026-04-20 11:59 56.75582 60.61374 36001 ft 416 kts 275°
2026-04-20 12:00 56.76342 60.50930 35996 ft 416 kts 275°
2026-04-20 12:00 56.77070 60.40453 35996 ft 416 kts 274°
2026-04-20 12:01 56.77782 60.29976 35995 ft 416 kts 274°
2026-04-20 12:01 56.78487 60.19494 35981 ft 417 kts 274°
2026-04-20 12:02 56.79172 60.08990 35985 ft 417 kts 274°
2026-04-20 12:02 56.79809 59.98476 36001 ft 417 kts 274°
2026-04-20 12:03 56.80434 59.87962 35974 ft 417 kts 274°
2026-04-20 12:03 56.81053 59.77492 35976 ft 418 kts 274°
2026-04-20 12:04 56.81673 59.66876 35974 ft 416 kts 274°
2026-04-20 12:04 56.81973 59.61707 35933 ft 402 kts 273°
2026-04-20 12:04 56.82261 59.56735 35936 ft 386 kts 273°
2026-04-20 12:05 56.82532 59.52008 35933 ft 374 kts 273°
2026-04-20 12:05 56.82798 59.47310 35947 ft 371 kts 273°
2026-04-20 12:05 56.83320 59.37933 35973 ft 371 kts 273°
2026-04-20 12:06 56.83837 59.28542 35949 ft 372 kts 273°
2026-04-20 12:06 56.84352 59.19105 35956 ft 374 kts 273°
2026-04-20 12:07 56.84862 59.09625 35950 ft 376 kts 272°
2026-04-20 12:07 56.86042 59.00322 35970 ft 385 kts 294°
2026-04-20 12:08 56.87545 58.96217 35942 ft 393 kts 307°
2026-04-20 12:08 56.89569 58.92792 35948 ft 401 kts 320°
2026-04-20 12:08 56.92053 58.90358 35943 ft 411 kts 336°
2026-04-20 12:08 56.94872 58.89239 35942 ft 421 kts 353°
2026-04-20 12:09 56.97820 58.89652 35949 ft 431 kts 10°
2026-04-20 12:09 57.00634 58.91653 35953 ft 439 kts 28°
2026-04-20 12:09 57.03042 58.95122 35949 ft 444 kts 47°
2026-04-20 12:09 57.04779 58.99715 35947 ft 446 kts 65°
2026-04-20 12:10 57.05772 59.05087 35984 ft 445 kts 82°
2026-04-20 12:10 57.05908 59.10728 35981 ft 440 kts 97°
2026-04-20 12:10 57.05283 59.21940 35975 ft 443 kts 99°
2026-04-20 12:11 57.04669 59.33246 35981 ft 446 kts 98°
2026-04-20 12:11 57.03688 59.44418 35955 ft 438 kts 120°
2026-04-20 12:12 57.02081 59.49044 35989 ft 427 kts 137°
2026-04-20 12:12 56.99865 59.52543 35988 ft 415 kts 154°
2026-04-20 12:12 56.97293 59.54767 35957 ft 404 kts 169°
2026-04-20 12:12 56.94567 59.55652 35978 ft 394 kts 184°
2026-04-20 12:13 56.91876 59.55212 35984 ft 385 kts 198°
2026-04-20 12:13 56.89387 59.53548 35981 ft 378 kts 212°
2026-04-20 12:13 56.87247 59.50831 35963 ft 374 kts 225°
2026-04-20 12:13 56.85579 59.47311 35965 ft 371 kts 238°
2026-04-20 12:14 56.84406 59.43134 35972 ft 370 kts 249°
2026-04-20 12:14 56.83701 59.38614 35960 ft 372 kts 261°
2026-04-20 12:14 56.83818 59.29155 35940 ft 375 kts 273°
2026-04-20 12:15 56.84374 59.19661 35944 ft 377 kts 273°
2026-04-20 12:15 56.84860 59.10117 35941 ft 377 kts 272°
2026-04-20 12:16 56.85872 59.00731 35959 ft 385 kts 293°
2026-04-20 12:16 56.87346 58.96614 35941 ft 392 kts 307°
2026-04-20 12:16 56.89349 58.93180 35949 ft 400 kts 320°
2026-04-20 12:17 56.91806 58.90697 35943 ft 409 kts 335°
2026-04-20 12:17 56.94601 58.89500 35941 ft 419 kts 352°
2026-04-20 12:17 56.97531 58.89833 35948 ft 428 kts
2026-04-20 12:17 57.00340 58.91763 35954 ft 435 kts 28°
2026-04-20 12:18 57.02745 58.95169 35945 ft 440 kts 46°
2026-04-20 12:18 57.04501 58.99767 35949 ft 442 kts 65°
2026-04-20 12:18 57.05489 59.05085 35982 ft 441 kts 82°
2026-04-20 12:18 57.05627 59.10659 35978 ft 436 kts 97°
2026-04-20 12:19 57.05014 59.21712 35972 ft 439 kts 99°
2026-04-20 12:19 57.04404 59.32914 35966 ft 443 kts 98°
2026-04-20 12:20 57.03433 59.44036 35952 ft 437 kts 120°
2026-04-20 12:20 57.01833 59.48648 35991 ft 425 kts 137°
2026-04-20 12:20 56.99621 59.52127 35989 ft 414 kts 154°
2026-04-20 12:21 56.97046 59.54320 35958 ft 404 kts 170°
2026-04-20 12:21 56.94317 59.55157 35981 ft 394 kts 185°
2026-04-20 12:21 56.91622 59.54653 35977 ft 386 kts 199°
2026-04-20 12:21 56.89145 59.52908 35968 ft 380 kts 213°
2026-04-20 12:22 56.87026 59.50095 35966 ft 375 kts 227°
2026-04-20 12:22 56.85382 59.46429 35962 ft 373 kts 240°
2026-04-20 12:22 56.84267 59.42164 35970 ft 373 kts 251°
2026-04-20 12:22 56.83647 59.37557 35952 ft 375 kts 263°
2026-04-20 12:23 56.83791 59.29626 35937 ft 378 kts 273°
2026-04-20 12:23 56.84350 59.20067 35945 ft 379 kts 273°
2026-04-20 12:24 56.84842 59.10486 35938 ft 379 kts 272°
2026-04-20 12:24 56.86196 58.99627 35965 ft 387 kts 297°
2026-04-20 12:25 56.89211 58.93404 35948 ft 399 kts 319°
2026-04-20 12:25 56.91642 58.90882 35935 ft 408 kts 334°
2026-04-20 12:25 56.94431 58.89631 35936 ft 417 kts 351°
2026-04-20 12:26 56.97310 58.89893 35950 ft 425 kts
2026-04-20 12:26 57.00113 58.91736 35947 ft 433 kts 27°
2026-04-20 12:26 57.02529 58.95065 35943 ft 437 kts 46°
2026-04-20 12:26 57.04304 58.99574 35949 ft 438 kts 64°
2026-04-20 12:27 57.05321 59.04829 35988 ft 437 kts 81°
2026-04-20 12:27 57.05501 59.10378 35974 ft 436 kts 97°
2026-04-20 12:27 57.04888 59.21561 35973 ft 444 kts 99°
2026-04-20 12:28 57.04270 59.32884 35960 ft 445 kts 98°
2026-04-20 12:28 57.03271 59.43997 35954 ft 435 kts 120°
2026-04-20 12:29 57.01655 59.48557 35988 ft 422 kts 138°
2026-04-20 12:29 56.99472 59.51928 35989 ft 410 kts 155°
2026-04-20 12:29 56.96920 59.54063 35956 ft 399 kts 170°
2026-04-20 12:29 56.94231 59.54862 35976 ft 388 kts 185°
2026-04-20 12:30 56.91583 59.54355 35971 ft 379 kts 199°
2026-04-20 12:30 56.89157 59.52649 35964 ft 372 kts 213°
2026-04-20 12:30 56.87079 59.49917 35965 ft 367 kts 226°
2026-04-20 12:30 56.85453 59.46352 35961 ft 364 kts 240°
2026-04-20 12:31 56.83690 59.37747 35954 ft 366 kts 262°
2026-04-20 12:31 56.83698 59.33085 35975 ft 372 kts 276°
2026-04-20 12:31 56.84291 59.28429 35947 ft 381 kts 285°
2026-04-20 12:32 56.85358 59.23947 35942 ft 391 kts 297°
2026-04-20 12:32 56.86884 59.19773 35963 ft 398 kts 301°
2026-04-20 12:32 56.90174 59.11448 35959 ft 409 kts 302°
2026-04-20 12:33 56.93540 59.02924 35953 ft 418 kts 301°
2026-04-20 12:33 56.96924 58.94201 35959 ft 426 kts 301°
2026-04-20 12:34 56.98643 58.89731 35730 ft 434 kts 301°
2026-04-20 12:34 57.00397 58.85147 35203 ft 443 kts 301°
2026-04-20 12:34 57.02166 58.80520 34557 ft 441 kts 301°
2026-04-20 12:34 57.03930 58.75903 33945 ft 441 kts 300°
2026-04-20 12:35 57.05685 58.71298 33191 ft 441 kts 300°
2026-04-20 12:35 57.07440 58.66684 32629 ft 438 kts 300°
2026-04-20 12:35 57.09177 58.62110 32131 ft 433 kts 300°
2026-04-20 12:35 57.10889 58.57593 31654 ft 429 kts 300°
2026-04-20 12:36 57.12584 58.53110 31181 ft 424 kts 300°
2026-04-20 12:36 57.14260 58.48668 30732 ft 420 kts 300°
2026-04-20 12:36 57.15919 58.44263 30272 ft 416 kts 299°
2026-04-20 12:36 57.17558 58.39901 29789 ft 412 kts 299°
2026-04-20 12:37 57.19180 58.35575 29303 ft 408 kts 299°
2026-04-20 12:37 57.20783 58.31293 28836 ft 403 kts 299°
2026-04-20 12:37 57.22364 58.27066 28386 ft 398 kts 300°
2026-04-20 12:37 57.23928 58.22877 27990 ft 393 kts 300°
2026-04-20 12:38 57.25499 58.18849 27792 ft 383 kts 302°
2026-04-20 12:38 57.27203 58.14962 27095 ft 389 kts 305°
2026-04-20 12:38 57.28958 58.11152 26510 ft 389 kts 306°
2026-04-20 12:38 57.30714 58.07368 26079 ft 385 kts 306°
2026-04-20 12:39 57.34151 57.99871 25218 ft 379 kts 306°
2026-04-20 12:39 57.35839 57.96141 24777 ft 377 kts 306°
2026-04-20 12:39 57.37518 57.92413 24350 ft 375 kts 306°
2026-04-20 12:40 57.39162 57.88751 23931 ft 373 kts 306°
2026-04-20 12:40 57.40819 57.85054 23513 ft 371 kts 306°
2026-04-20 12:40 57.42464 57.81381 23022 ft 369 kts 306°
2026-04-20 12:40 57.44100 57.77721 22584 ft 366 kts 306°
2026-04-20 12:41 57.45650 57.74013 22155 ft 360 kts 297°
2026-04-20 12:41 57.46484 57.69730 21773 ft 350 kts 276°
2026-04-20 12:41 57.46509 57.65272 21311 ft 345 kts 261°
2026-04-20 12:41 57.45899 57.60977 20819 ft 344 kts 246°
2026-04-20 12:42 57.44681 57.57184 20407 ft 342 kts 234°
2026-04-20 12:42 57.43242 57.53680 19993 ft 340 kts 232°
2026-04-20 12:42 57.41778 57.50250 19582 ft 339 kts 232°
2026-04-20 12:42 57.40318 57.46831 19193 ft 337 kts 232°
2026-04-20 12:43 57.38875 57.43419 18794 ft 336 kts 232°
2026-04-20 12:43 57.37444 57.40008 18400 ft 334 kts 232°
2026-04-20 12:43 57.36023 57.36604 17974 ft 333 kts 232°
2026-04-20 12:43 57.34610 57.33219 17539 ft 332 kts 232°
2026-04-20 12:44 57.33204 57.29854 17121 ft 329 kts 232°
2026-04-20 12:44 57.31881 57.26409 16715 ft 328 kts 242°
2026-04-20 12:44 57.31248 57.22376 16333 ft 329 kts 263°
2026-04-20 12:44 57.31343 57.18128 15767 ft 336 kts 280°
2026-04-20 12:45 57.32112 57.14036 15372 ft 337 kts 290°
2026-04-20 12:45 57.33064 57.10071 14973 ft 337 kts 291°
2026-04-20 12:45 57.34025 57.06174 14570 ft 336 kts 292°
2026-04-20 12:45 57.34977 57.02229 14181 ft 335 kts 291°
2026-04-20 12:46 57.35909 56.98273 13789 ft 334 kts 291°
2026-04-20 12:46 57.36830 56.94327 13357 ft 333 kts 291°
2026-04-20 12:46 57.37788 56.90423 12918 ft 332 kts 292°
2026-04-20 12:46 57.38779 56.86574 12524 ft 331 kts 293°
2026-04-20 12:47 57.39776 56.82741 12134 ft 329 kts 292°
2026-04-20 12:47 57.40767 56.78921 11750 ft 327 kts 292°
2026-04-20 12:47 57.41746 56.75125 11370 ft 326 kts 292°
2026-04-20 12:47 57.42720 56.71326 10994 ft 324 kts 292°
2026-04-20 12:48 57.43672 56.67602 10620 ft 323 kts 292°
2026-04-20 12:48 57.44624 56.63869 10459 ft 315 kts 293°
2026-04-20 12:48 57.45549 56.60227 10304 ft 307 kts 294°
2026-04-20 12:48 57.46449 56.56682 10176 ft 299 kts 293°
2026-04-20 12:49 57.47324 56.53227 10039 ft 291 kts 293°
2026-04-20 12:49 57.48175 56.49859 9923 ft 284 kts 294°
2026-04-20 12:49 57.49014 56.46533 9622 ft 284 kts 294°
2026-04-20 12:49 57.49839 56.43260 9338 ft 283 kts 292°
2026-04-20 12:50 57.50671 56.39949 9038 ft 281 kts 292°
2026-04-20 12:50 57.51500 56.36649 8756 ft 280 kts 292°
2026-04-20 12:50 57.52319 56.33378 8471 ft 279 kts 292°
2026-04-20 12:50 57.53140 56.30112 8186 ft 278 kts 291°
2026-04-20 12:51 57.53959 56.26836 7896 ft 278 kts 292°
2026-04-20 12:51 57.54770 56.23583 7618 ft 277 kts 292°
2026-04-20 12:51 57.55585 56.20337 7330 ft 276 kts 293°
2026-04-20 12:51 57.56701 56.17462 7034 ft 280 kts 313°
2026-04-20 12:52 57.58127 56.15002 6779 ft 279 kts 315°
2026-04-20 12:52 57.59556 56.12542 6490 ft 279 kts 315°
2026-04-20 12:52 57.60969 56.10061 6188 ft 280 kts 313°
2026-04-20 12:52 57.62383 56.07536 5880 ft 279 kts 313°
2026-04-20 12:53 57.63763 56.05055 5596 ft 279 kts 313°
2026-04-20 12:53 57.65158 56.02541 5302 ft 277 kts 314°
2026-04-20 12:53 57.66523 56.00074 5042 ft 269 kts 314°
2026-04-20 12:53 57.67860 55.97658 4778 ft 266 kts 313°
2026-04-20 12:54 57.69187 55.95253 4542 ft 263 kts 314°
2026-04-20 12:54 57.70490 55.92892 4268 ft 258 kts 313°
2026-04-20 12:54 57.71749 55.90608 4005 ft 245 kts 314°
2026-04-20 12:54 57.72925 55.88474 3894 ft 227 kts 314°
2026-04-20 12:55 57.74047 55.86435 3835 ft 221 kts 314°
2026-04-20 12:55 57.75121 55.84479 3734 ft 215 kts 314°
2026-04-20 12:55 57.76182 55.82548 3637 ft 211 kts 314°
2026-04-20 12:55 57.77251 55.80632 3525 ft 215 kts 319°
2026-04-20 12:56 57.78621 55.79561 3296 ft 216 kts
2026-04-20 12:56 57.80008 55.80343 3143 ft 205 kts 34°
2026-04-20 12:56 57.81057 55.82052 2930 ft 195 kts 53°
2026-04-20 12:56 57.81966 55.83833 2710 ft 187 kts 51°
2026-04-20 12:57 57.82863 55.85539 2461 ft 178 kts 51°
2026-04-20 12:57 57.83702 55.87150 2228 ft 168 kts 50°
2026-04-20 12:57 57.84488 55.88666 2051 ft 154 kts 50°
2026-04-20 12:57 57.85202 55.90042 2062 ft 144 kts 50°
2026-04-20 12:58 57.85921 55.91414 2020 ft 148 kts 50°
2026-04-20 12:58 57.86640 55.92787 1808 ft 147 kts 49°
2026-04-20 12:58 57.87336 55.94138 1455 ft 144 kts 48°
2026-04-20 12:58 57.88026 55.95479 1147 ft 139 kts 49°
2026-04-20 12:59 57.88712 55.96813 938 ft 144 kts 49°
2026-04-20 12:59 57.89413 55.98177 731 ft 148 kts 47°
2026-04-20 12:59 57.90135 55.99578 523 ft 149 kts 47°
2026-04-20 12:59 57.90833 56.00932 397 ft 137 kts 48°
2026-04-20 13:00 57.91404 56.02048 396 ft 97 kts 45°
2026-04-20 13:00 57.91769 56.02753 400 ft 53 kts 46°
2026-04-20 13:00 57.92008 56.03220 398 ft 46 kts 46°
2026-04-20 13:00 57.92216 56.03619 398 ft 40 kts 46°
2026-04-20 13:01 57.92383 56.03953 401 ft 19 kts 48°
2026-04-20 13:01 57.92415 56.04078 401 ft 7 kts 41°
2026-04-20 13:01 57.92442 56.04039 401 ft 5 kts 264°
2026-04-20 13:01 57.92407 56.03982 401 ft 10 kts 217°
2026-04-20 13:02 57.92330 56.03839 401 ft 21 kts 226°
2026-04-20 13:02 57.92225 56.03636 400 ft 21 kts 225°
2026-04-20 13:02 57.92123 56.03440 402 ft 21 kts 224°
2026-04-20 13:02 57.92024 56.03248 400 ft 20 kts 227°
2026-04-20 13:03 57.91928 56.03058 395 ft 20 kts 225°
2026-04-20 13:03 57.91834 56.02878 399 ft 19 kts 226°
2026-04-20 13:03 57.91745 56.02705 401 ft 18 kts 225°
2026-04-20 13:03 57.91673 56.02526 399 ft 16 kts 269°
2026-04-20 13:04 57.91734 56.02378 395 ft 7 kts 314°
2026-04-20 13:04 57.91772 56.02309 396 ft 8 kts 316°
2026-04-20 13:04 57.91812 56.02236 396 ft 8 kts 315°
2026-04-20 13:04 57.91862 56.02188 396 ft 9 kts
2026-04-20 13:05 57.91918 56.02177 394 ft 8 kts 324°
2026-04-20 13:05 57.91937 56.02144 392 ft 2 kts 316°
2026-04-20 13:05 57.91938 56.02142 392 ft 0 kts 316°